When you browse on this site, cookies collect data to enhance your experience and personalize the content and advertising you see.
Visit our Privacy Policy to learn more. By continuing to use the site, you agree to this use of cookies and data.
  • In Hungary
  • List of Countries
  • For 7 days
  • Water Temperature
  • Weather Map
  • News
  • Weather Widgets
  • user-avatar
    Login

    Hourly Weather Torchino

    Today, 20 January, Monday

    Time Temperature Precipitation Wind Pressure Humidity
    00:00 -2°C° 0 mm 3 mps 761 mmHg 92%
    01:00 -2°C° 0 mm 3 mps 761 mmHg 92%
    02:00 -3°C° 0 mm 4 mps 761 mmHg 92%
    03:00 -2°C° 0 mm 3 mps 761 mmHg 91%
    04:00 -1°C° 0 mm 3 mps 761 mmHg 91%
    05:00 -2°C° 0 mm 4 mps 760 mmHg 91%
    06:00 -2°C° 0 mm 4 mps 760 mmHg 90%
    07:00 -2°C° 0 mm 4 mps 760 mmHg 91%
    08:00 -2°C° 0 mm 4 mps 760 mmHg 91%
    09:00 -2°C° 0 mm 4 mps 760 mmHg 90%
    10:00 -2°C° 0 mm 5 mps 760 mmHg 90%
    11:00 -1°C° 0 mm 5 mps 759 mmHg 89%
    12:00 -2°C° 0 mm 6 mps 759 mmHg 89%
    13:00 -1°C° 0 mm 5 mps 759 mmHg 89%
    14:00 -1°C° 0 mm 5 mps 759 mmHg 90%
    15:00 -1°C° 0 mm 4 mps 759 mmHg 90%
    16:00 -1°C° 0 mm 5 mps 759 mmHg 92%
    17:00 -1°C° 0 mm 5 mps 758 mmHg 94%
    18:00 -1°C° 0 mm 5 mps 758 mmHg 96%
    19:00 -1°C° 0 mm 5 mps 758 mmHg 96%
    20:00 -1°C° 0 mm 5 mps 758 mmHg 96%
    21:00 -1°C° 0 mm 5 mps 757 mmHg 96%
    22:00 -2°C° 0 mm 5 mps 757 mmHg 95%
    23:00 -2°C° 0 mm 5 mps 757 mmHg 95%

    Tomorrow, 21 January, Tuesday

    Time Temperature Precipitation Wind Pressure Humidity
    00:00 -2°C° 0 mm 5 mps 756 mmHg 95%
    01:00 -2°C° 0 mm 5 mps 756 mmHg 95%
    02:00 -2°C° 0 mm 5 mps 756 mmHg 95%
    03:00 -2°C° 0 mm 5 mps 755 mmHg 94%
    04:00 -2°C° 0 mm 5 mps 755 mmHg 91%
    05:00 -2°C° 0 mm 5 mps 754 mmHg 89%
    06:00 -4°C° 0 mm 5 mps 753 mmHg 86%
    07:00 -2°C° 0.1 mm 5 mps 753 mmHg 88%
    08:00 -3°C° 0.1 mm 6 mps 752 mmHg 91%
    09:00 -3°C° 0.1 mm 6 mps 752 mmHg 93%
    10:00 -3°C° 0.2 mm 6 mps 751 mmHg 94%
    11:00 -3°C° 0.2 mm 7 mps 750 mmHg 95%
    12:00 -3°C° 0.2 mm 7 mps 749 mmHg 96%
    13:00 -2°C° 0.2 mm 7 mps 748 mmHg 96%
    14:00 -2°C° 0.2 mm 7 mps 748 mmHg 96%
    15:00 -1°C° 0.2 mm 7 mps 747 mmHg 96%
    16:00 -1°C° 0.1 mm 6 mps 746 mmHg 95%
    17:00 -1°C° 0.1 mm 6 mps 745 mmHg 95%
    18:00 -1°C° 0.1 mm 6 mps 744 mmHg 95%
    19:00 -1°C° 0.3 mm 6 mps 743 mmHg 95%
    20:00 +1°C° 0.3 mm 6 mps 742 mmHg 95%
    21:00 +1°C° 0.3 mm 6 mps 742 mmHg 96%
    22:00 +1°C° 1 mm 6 mps 740 mmHg 95%
    23:00 0°C° 1 mm 7 mps 739 mmHg 95%

    Day after tomorrow, 22 January, Wednesday

    Time Temperature Precipitation Wind Pressure Humidity
    00:00 +2°C° 1 mm 7 mps 738 mmHg 94%
    01:00 +2°C° 0.4 mm 7 mps 738 mmHg 90%
    02:00 0°C° 0.4 mm 8 mps 739 mmHg 86%
    03:00 0°C° 0.4 mm 8 mps 739 mmHg 82%
    04:00 -1°C° 0 mm 7 mps 739 mmHg 81%
    05:00 -2°C° 0 mm 7 mps 739 mmHg 81%
    06:00 -3°C° 0 mm 6 mps 740 mmHg 80%
    07:00 -3°C° 0 mm 6 mps 740 mmHg 79%
    08:00 -4°C° 0 mm 6 mps 739 mmHg 79%
    09:00 -4°C° 0 mm 5 mps 739 mmHg 79%
    10:00 -4°C° 0 mm 6 mps 739 mmHg 79%
    11:00 -3°C° 0 mm 6 mps 739 mmHg 78%
    12:00 -3°C° 0 mm 6 mps 739 mmHg 78%
    13:00 -3°C° 0 mm 6 mps 738 mmHg 77%
    14:00 -2°C° 0 mm 5 mps 738 mmHg 77%
    15:00 -2°C° 0 mm 5 mps 738 mmHg 76%
    16:00 -2°C° 0 mm 5 mps 737 mmHg 78%
    17:00 -3°C° 0 mm 4 mps 737 mmHg 80%
    18:00 -3°C° 0 mm 4 mps 737 mmHg 83%
    19:00 -3°C° 0 mm 4 mps 737 mmHg 84%
    20:00 -3°C° 0 mm 4 mps 737 mmHg 84%
    21:00 -3°C° 0 mm 4 mps 736 mmHg 85%
    22:00 -3°C° 0 mm 4 mps 737 mmHg 84%
    23:00 -3°C° 0 mm 4 mps 737 mmHg 83%

    23 January, Thursday

    Time Temperature Precipitation Wind Pressure Humidity
    00:00 -3°C° 0 mm 4 mps 737 mmHg 82%
    01:00 -4°C° 0 mm 4 mps 737 mmHg 83%
    02:00 -4°C° 0 mm 4 mps 738 mmHg 83%
    03:00 -4°C° 0 mm 4 mps 738 mmHg 83%
    04:00 -5°C° 0.1 mm 5 mps 738 mmHg 84%
    05:00 -5°C° 0.1 mm 5 mps 738 mmHg 85%
    06:00 -5°C° 0.1 mm 6 mps 739 mmHg 86%
    07:00 -6°C° 0.1 mm 6 mps 740 mmHg 83%
    08:00 -6°C° 0.1 mm 6 mps 740 mmHg 79%
    09:00 -8°C° 0.1 mm 7 mps 741 mmHg 75%
    10:00 -8°C° 0 mm 7 mps 742 mmHg 72%
    11:00 -8°C° 0 mm 7 mps 743 mmHg 69%
    12:00 -8°C° 0 mm 7 mps 743 mmHg 66%
    13:00 -9°C° 0 mm 7 mps 744 mmHg 64%
    14:00 -9°C° 0 mm 7 mps 745 mmHg 62%
    15:00 -9°C° 0 mm 6 mps 745 mmHg 60%
    16:00 -9°C° 0 mm 6 mps 746 mmHg 62%
    17:00 -8°C° 0 mm 5 mps 747 mmHg 64%
    18:00 -8°C° 0 mm 4 mps 747 mmHg 66%
    19:00 -8°C° 0 mm 4 mps 748 mmHg 68%
    20:00 -8°C° 0 mm 5 mps 749 mmHg 70%
    21:00 -8°C° 0 mm 5 mps 749 mmHg 72%
    22:00 -9°C° 0 mm 4 mps 750 mmHg 74%
    23:00 -9°C° 0 mm 4 mps 750 mmHg 75%

    24 January, Friday

    Time Temperature Precipitation Wind Pressure Humidity
    00:00 -8°C° 0 mm 3 mps 751 mmHg 77%
    01:00 -8°C° 0 mm 3 mps 751 mmHg 78%
    02:00 -10°C° 0 mm 4 mps 752 mmHg 78%
    03:00 -10°C° 0 mm 4 mps 752 mmHg 79%
    04:00 -10°C° 0 mm 4 mps 752 mmHg 80%
    05:00 -9°C° 0 mm 3 mps 752 mmHg 81%
    06:00 -9°C° 0 mm 3 mps 752 mmHg 81%
    07:00 -9°C° 0 mm 3 mps 752 mmHg 81%
    08:00 -9°C° 0 mm 3 mps 752 mmHg 80%
    09:00 -9°C° 0 mm 3 mps 752 mmHg 80%
    10:00 -8°C° 0 mm 3 mps 752 mmHg 79%
    11:00 -8°C° 0 mm 4 mps 751 mmHg 78%
    12:00 -8°C° 0 mm 4 mps 751 mmHg 77%
    13:00 -7°C° 0.2 mm 4 mps 750 mmHg 82%
    14:00 -6°C° 0.2 mm 5 mps 750 mmHg 87%
    15:00 -5°C° 0.2 mm 5 mps 749 mmHg 92%
    16:00 -5°C° 0.2 mm 5 mps 749 mmHg 93%
    17:00 -4°C° 0.2 mm 4 mps 749 mmHg 94%
    18:00 -4°C° 0.2 mm 4 mps 748 mmHg 95%
    19:00 -4°C° 0.1 mm 4 mps 748 mmHg 95%
    20:00 -4°C° 0.1 mm 4 mps 748 mmHg 94%
    21:00 -3°C° 0.1 mm 4 mps 748 mmHg 93%
    22:00 -2°C° 0.1 mm 5 mps 747 mmHg 94%
    23:00 -2°C° 0.1 mm 5 mps 747 mmHg 95%

    25 January, Saturday

    Time Temperature Precipitation Wind Pressure Humidity
    00:00 -1°C° 0.1 mm 5 mps 747 mmHg 96%
    01:00 -1°C° 0.3 mm 5 mps 746 mmHg 96%
    02:00 -1°C° 0.3 mm 5 mps 746 mmHg 96%
    03:00 -1°C° 0.3 mm 6 mps 746 mmHg 96%
    04:00 -1°C° 0.1 mm 6 mps 746 mmHg 96%
    05:00 -1°C° 0.1 mm 6 mps 746 mmHg 96%
    06:00 -1°C° 0.1 mm 6 mps 746 mmHg 96%
    07:00 -2°C° 0.1 mm 6 mps 746 mmHg 96%
    08:00 -2°C° 0.1 mm 6 mps 746 mmHg 96%
    09:00 -1°C° 0.1 mm 5 mps 746 mmHg 97%
    10:00 -1°C° 0.1 mm 5 mps 747 mmHg 97%
    11:00 -1°C° 0.1 mm 5 mps 747 mmHg 97%
    12:00 0°C° 0.1 mm 5 mps 748 mmHg 97%
    13:00 0°C° 0 mm 5 mps 748 mmHg 96%
    14:00 0°C° 0 mm 5 mps 748 mmHg 96%
    15:00 0°C° 0 mm 4 mps 748 mmHg 96%
    16:00 0°C° 0 mm 4 mps 748 mmHg 96%
    17:00 -1°C° 0 mm 4 mps 748 mmHg 96%
    18:00 -1°C° 0 mm 4 mps 748 mmHg 96%
    19:00 -1°C° 0 mm 4 mps 748 mmHg 96%
    20:00 -1°C° 0 mm 4 mps 748 mmHg 96%
    21:00 -1°C° 0 mm 4 mps 749 mmHg 96%
    22:00 -1°C° 0 mm 4 mps 749 mmHg 96%
    23:00 -1°C° 0 mm 4 mps 749 mmHg 96%
    Show more